Weather reports worldwide

Advertisment
Bergamo/Orio al Serio, Italy (16076): temperature & dewpoint: 15.01.2018 04:00:00 - 21.01.2018 04:00:00 (CET)Bergamo/Orio al Serio, Italy (16076): wind speed: 15.01.2018 04:00:00 - 21.01.2018 04:00:00 (CET)Bergamo/Orio al Serio, Italy (16076): wind direction: 15.01.2018 04:00:00 - 21.01.2018 04:00:00 (CET)Bergamo/Orio al Serio, Italy (16076): reduced air pressure: 15.01.2018 04:00:00 - 21.01.2018 04:00:00 (CET)Bergamo/Orio al Serio, Italy (16076): visibility: 15.01.2018 04:00:00 - 21.01.2018 04:00:00 (CET)
Date & Time tt [°C] td [°C] ff [km/h] ff [kn] dd ppp [hPa] vv [km]
21.01.2018 04:00:00 - - - - - - -
21.01.2018 03:00:00 4,0 1,0 8 4 N - 10
21.01.2018 02:00:00 5,0 1,0 21 11 N - 10
21.01.2018 01:00:00 4,9 -0,1 15 8 N 1004,6 15
21.01.2018 00:00:00 4,0 2,0 4 2 - - 10
20.01.2018 23:00:00 4,0 2,0 4 2 - - 10
20.01.2018 22:00:00 3,9 1,7 5 3 N 1007,7 15
20.01.2018 21:00:00 4,0 1,0 4 2 - - 10
20.01.2018 20:00:00 5,0 1,0 4 2 - - 10
20.01.2018 19:00:00 4,8 0,6 5 3 SE 1009,2 15
20.01.2018 18:00:00 6,0 1,0 15 8 E - 10
20.01.2018 17:00:00 7,0 1,0 13 7 ENE - 10
20.01.2018 16:00:00 7,1 0,8 5 3 ESE 1010,4 15
20.01.2018 15:00:00 7,0 1,0 9 5 E - 10
20.01.2018 14:00:00 6,0 2,0 5 3 SSE - 8
20.01.2018 13:00:00 6,5 1,0 8 4 SSE 1012,9 11
20.01.2018 12:00:00 7,0 -1,0 5 3 S - 10
20.01.2018 11:00:00 7,0 -1,0 2 1 - - 10
20.01.2018 10:00:00 5,0 -2,9 8 4 NE 1014,7 20
20.01.2018 09:00:00 1,0 -3,0 8 4 NNE - 10
20.01.2018 08:00:00 0,0 -4,0 11 6 NNE - 10
20.01.2018 07:00:00 -0,8 -4,9 5 3 NE 1015,1 20
20.01.2018 06:00:00 1,0 -4,0 11 6 NE - 10
20.01.2018 05:00:00 0,0 -4,0 9 5 E - 10
20.01.2018 04:00:00 2,1 -5,1 2 1 W 1013,6 20
20.01.2018 03:00:00 2,0 -5,0 5 3 NE - 10
20.01.2018 02:00:00 3,0 -5,0 13 7 N - 10
20.01.2018 01:00:00 2,1 -4,4 15 8 N 1013,3 20
20.01.2018 00:00:00 2,0 -3,0 13 7 N - 10
19.01.2018 23:00:00 2,0 -1,0 11 6 NE - 10
19.01.2018 22:00:00 2,9 -0,9 8 4 NE 1013,0 20
19.01.2018 21:00:00 3,0 0,0 11 6 NNE - 10
19.01.2018 20:00:00 4,0 1,0 5 3 NNE - 10
19.01.2018 19:00:00 4,2 0,7 8 4 ENE 1011,8 20
19.01.2018 18:00:00 6,0 2,0 8 4 ESE - 10
19.01.2018 17:00:00 7,0 2,0 9 5 ESE - 10
19.01.2018 16:00:00 9,5 2,0 11 6 SSE 1009,0 20
19.01.2018 15:00:00 10,0 1,0 11 6 W - 10
19.01.2018 14:00:00 8,0 0,0 11 6 NW - 10
19.01.2018 13:00:00 6,3 0,2 4 2 S 1008,9 20
19.01.2018 12:00:00 6,0 -1,0 4 2 - - 10
19.01.2018 11:00:00 7,0 -1,0 11 6 SSE - 10
19.01.2018 10:00:00 6,6 -1,4 4 2 - 1008,8 10
19.01.2018 09:00:00 2,0 -2,0 4 2 - - 10
19.01.2018 08:00:00 2,0 -3,0 11 6 N - 10
19.01.2018 07:00:00 1,6 -3,3 8 4 NNE 1008,8 10
19.01.2018 06:00:00 2,0 -3,0 11 6 N - 10
19.01.2018 05:00:00 2,0 -3,0 11 6 N - 10
19.01.2018 04:00:00 1,9 -3,3 11 6 N 1009,5 10
19.01.2018 03:00:00 2,0 -3,0 11 6 NNE - 10
19.01.2018 02:00:00 3,0 -3,0 11 6 N - 10
19.01.2018 01:00:00 3,0 -3,0 11 6 N 1010,8 10
19.01.2018 00:00:00 3,0 -3,0 9 5 N - 10
18.01.2018 23:00:00 3,0 -3,0 8 4 NE - 10
18.01.2018 22:00:00 3,5 -2,5 8 4 N 1011,9 10
18.01.2018 21:00:00 4,0 -2,0 13 7 N - 10
18.01.2018 20:00:00 5,0 -2,0 9 5 N - 10
18.01.2018 19:00:00 7,3 -0,9 9 5 WNW 1012,2 10
18.01.2018 18:00:00 8,0 -1,0 15 8 W - 10
18.01.2018 17:00:00 10,0 -2,0 16 9 W - 10
18.01.2018 16:00:00 10,8 -2,4 15 8 W 1011,9 10
18.01.2018 15:00:00 12,0 -6,0 22 12 W - 10
18.01.2018 14:00:00 12,0 -6,0 18 10 W - 10
18.01.2018 13:00:00 11,3 -4,7 21 11 W 1013,8 10
18.01.2018 12:00:00 11,0 -7,0 9 5 WNW - 10
18.01.2018 11:00:00 8,0 -7,0 9 5 N - 10
18.01.2018 10:00:00 6,3 -6,6 9 5 N 1016,3 20
18.01.2018 09:00:00 3,0 -7,0 9 5 NNE - 10
18.01.2018 08:00:00 2,0 -7,0 16 9 N - 10
18.01.2018 07:00:00 2,1 -7,4 11 6 N 1016,2 10
18.01.2018 06:00:00 1,0 -6,0 9 5 NNE - 10
18.01.2018 05:00:00 1,0 -6,0 8 4 ENE - 10
18.01.2018 04:00:00 1,9 -6,2 15 8 WSW 1016,3 10
18.01.2018 03:00:00 2,0 -6,0 22 12 W - 10
18.01.2018 02:00:00 5,0 -9,0 13 7 NW - 10
18.01.2018 01:00:00 5,9 -9,1 16 9 NNW 1015,8 10
18.01.2018 00:00:00 3,0 -8,0 16 9 NNW - 10
17.01.2018 23:00:00 4,0 -8,0 9 5 NW - 10
17.01.2018 22:00:00 3,6 -7,6 16 9 WNW 1015,6 10
17.01.2018 21:00:00 3,0 -8,0 16 9 W - 10
17.01.2018 20:00:00 4,0 -9,0 18 10 W - 10
17.01.2018 19:00:00 5,2 -9,5 22 12 W 1012,5 10
17.01.2018 18:00:00 7,0 -11,0 24 13 WNW - 10
17.01.2018 17:00:00 7,0 -8,0 26 14 WNW - 10
17.01.2018 16:00:00 7,7 -4,6 24 13 NW 1009,3 10
17.01.2018 15:00:00 9,0 -8,0 41 22 WNW - 10
17.01.2018 14:00:00 11,0 -9,0 35 19 WNW - 10
17.01.2018 13:00:00 11,0 -10,5 41 22 WNW 1004,1 10
17.01.2018 12:00:00 11,0 -9,0 35 19 WNW - 10
17.01.2018 11:00:00 9,0 0,0 16 9 W - 10
17.01.2018 10:00:00 5,5 2,3 21 11 W 1002,5 8
17.01.2018 09:00:00 3,0 2,0 21 11 W - 2,0
17.01.2018 08:00:00 3,0 2,0 11 6 WNW - 0,9
17.01.2018 07:00:00 2,6 1,9 9 5 SW 1001,2 1,5
17.01.2018 06:00:00 3,0 2,0 5 3 WSW - 1,0
17.01.2018 05:00:00 3,0 2,0 5 3 SSW - 1,0
17.01.2018 04:00:00 2,6 2,1 4 2 - 1000,9 1,0
17.01.2018 03:00:00 3,0 2,0 9 5 NE - 1,5
17.01.2018 02:00:00 2,0 2,0 9 5 NNE - 1,0
17.01.2018 01:00:00 2,4 2,3 5 3 E 1002,6 0,6
17.01.2018 00:00:00 2,0 2,0 5 3 ENE - -
16.01.2018 23:00:00 2,0 1,0 9 5 ESE - 0,2
16.01.2018 22:00:00 1,4 0,9 5 3 SSE 1004,2 1,5
16.01.2018 21:00:00 2,0 2,0 4 2 - - 1,4
16.01.2018 20:00:00 3,0 2,0 5 3 NNE - 1,4
16.01.2018 19:00:00 2,7 2,2 2 1 S 1005,8 1,6
16.01.2018 18:00:00 4,0 3,0 2 1 - - 1,8
16.01.2018 17:00:00 5,0 3,0 9 5 WSW - 3,5
16.01.2018 16:00:00 6,3 2,6 13 7 SW 1006,7 4,0
16.01.2018 15:00:00 7,0 3,0 9 5 W - 6
16.01.2018 14:00:00 7,0 3,0 13 7 W - 6
16.01.2018 13:00:00 6,1 3,5 9 5 WSW 1009,6 4,0
16.01.2018 12:00:00 5,0 2,0 4 2 - - 3,5
16.01.2018 11:00:00 4,0 3,0 5 3 W - 2,0
16.01.2018 10:00:00 3,4 2,5 9 5 WSW 1011,9 1,5
16.01.2018 09:00:00 3,0 3,0 13 7 W - 1,5
16.01.2018 08:00:00 3,0 3,0 11 6 W - 2,0
16.01.2018 07:00:00 3,6 2,8 5 3 W 1012,6 1,5
16.01.2018 06:00:00 3,0 3,0 5 3 WSW - 1,2
16.01.2018 05:00:00 3,0 3,0 5 3 SSW - 1,2
16.01.2018 04:00:00 3,2 2,7 4 2 - 1015,0 1,2
16.01.2018 03:00:00 3,0 3,0 5 3 SSW - 1,2
16.01.2018 02:00:00 3,0 3,0 4 2 - - 1,2
16.01.2018 01:00:00 3,3 2,9 0 0 N 1017,5 1,2
16.01.2018 00:00:00 3,0 3,0 4 2 - - 1,5
15.01.2018 23:00:00 3,0 3,0 2 1 - - 1,5
15.01.2018 22:00:00 3,6 3,0 4 2 - 1019,6 2,0
15.01.2018 21:00:00 4,0 3,0 5 3 SSW - 2,5
15.01.2018 20:00:00 4,0 3,0 4 2 E - 3,0
15.01.2018 19:00:00 3,9 2,7 0 0 N 1020,3 2,5
15.01.2018 18:00:00 4,0 3,0 2 1 - - 3,0
15.01.2018 17:00:00 4,0 3,0 9 5 SSW - 3,5
15.01.2018 16:00:00 4,4 2,6 11 6 SSW 1021,9 4,0
15.01.2018 15:00:00 5,0 2,0 9 5 NE - 4,0
15.01.2018 14:00:00 5,0 2,0 2 1 - - 4,0
15.01.2018 13:00:00 4,7 2,6 4 2 - 1023,9 5
15.01.2018 12:00:00 5,0 2,0 2 1 - - 4,0
15.01.2018 11:00:00 4,0 2,0 5 3 E - 4,0
15.01.2018 10:00:00 3,7 2,1 2 1 - 1025,3 4,0
15.01.2018 09:00:00 3,0 2,0 5 3 ESE - 4,0
15.01.2018 08:00:00 3,0 2,0 0 0 N - 4,0
15.01.2018 07:00:00 2,8 1,8 4 2 - 1024,5 6
15.01.2018 06:00:00 3,0 2,0 2 1 - - 8
15.01.2018 05:00:00 3,0 2,0 4 2 ESE - 8
15.01.2018 04:00:00 3,2 1,5 2 1 E 1024,3 8

tt = temperature
td = dewpoint
ff = wind speed
dd = wind direction
ppp = reduced air pressure
vv = visibility

Next stations